Theta_e
343 343 343 342 342 341 341 341 341 341 341 340 340 340 340 339 339 339 339 339 339 338 338 337 335 335 335 336 336 337 338 338 339 339 338 338 338 338 338 338 338 338
343 343 343 342 342 342 341 341 341 341 341 340 340 340 340 339 339 339 339 339 339 339 338 337 336 335 335 335 336 337 337 338 339 339 339 338 338 338 338 338 338 338
343 343 343 342 342 342 342 341 341 341 341 340 340 340 340 339 339 339 338 339 338 338 338 337 336 335 334 335 336 337 338 338 339 339 339 339 339 339 338 338 338 338
344 343 343 343 343 342 342 342 341 340 340 340 340 340 340 339 339 339 339 338 338 338 338 338 337 336 335 335 336 337 338 339 339 339 340 340 340 340 340 339 339 338
344 344 343 343 343 342 342 342 341 340 340 340 340 340 340 339 339 339 339 339 338 338 338 338 337 336 336 336 336 336 338 339 340 340 340 340 341 340 340 340 339 339
344 344 343 343 343 343 342 342 342 341 341 340 340 340 340 340 340 340 340 339 339 338 338 338 337 337 336 336 336 336 337 339 340 340 341 341 341 341 340 340 340 339
344 344 343 343 343 343 343 343 342 342 341 340 340 340 340 340 340 340 340 340 339 338 338 338 337 337 337 337 337 336 336 337 339 340 341 341 341 341 340 340 340 340
344 344 344 343 343 343 343 342 342 341 341 341 340 340 340 340 340 340 339 339 339 338 338 338 337 337 337 337 337 337 336 337 338 340 341 341 341 341 341 341 341 340
344 343 343 343 343 343 343 343 342 342 341 341 341 340 340 340 340 339 339 339 338 338 338 338 338 338 337 338 337 338 337 336 338 340 340 341 341 341 341 341 341 341
344 343 343 343 343 343 343 343 342 342 341 340 340 340 340 340 340 339 339 339 338 338 339 338 338 338 338 338 338 338 337 336 337 339 340 341 341 341 341 341 341 341
343 343 343 343 343 343 343 343 342 341 341 340 340 340 340 340 340 339 339 339 339 339 339 339 339 339 339 339 339 338 338 337 337 338 339 341 341 341 341 341 341 340
344 343 343 343 343 342 342 342 342 342 341 341 340 340 340 340 340 340 340 340 340 340 339 339 339 339 339 339 339 339 339 338 338 338 339 341 342 341 341 341 341 340
343 343 343 343 342 342 342 342 342 342 342 342 341 341 341 341 340 341 340 340 340 340 340 340 340 340 340 340 339 339 339 339 339 339 340 341 341 341 341 341 340 339
343 343 343 343 342 342 342 342 342 343 343 342 342 342 342 342 341 341 341 341 340 340 340 340 341 340 340 340 340 340 340 340 340 340 340 340 341 341 341 340 340 339
343 343 343 342 343 342 342 343 342 343 343 342 343 343 343 343 342 342 341 341 341 341 341 341 341 341 341 341 341 340 340 340 340 340 340 340 340 341 340 340 339 338
342 343 343 342 342 342 342 343 342 342 343 343 343 343 343 343 343 342 342 342 342 342 342 342 342 342 342 342 341 341 341 341 340 340 340 340 340 340 340 340 339 337
341 342 342 342 342 342 342 342 343 343 343 344 344 344 344 343 343 343 343 343 343 343 342 343 343 342 343 342 342 342 341 341 341 341 341 341 340 340 340 340 339 336
341 342 342 342 342 342 342 342 343 343 344 344 344 344 345 344 344 344 344 344 343 343 343 343 344 344 344 344 343 342 342 342 342 342 341 341 340 340 340 339 338 335
341 341 342 342 342 342 342 342 343 343 344 344 344 344 345 345 344 344 345 345 344 344 344 344 344 344 344 344 343 343 343 342 342 342 342 342 341 340 339 339 338 334
342 343 343 343 342 342 341 341 341 343 344 343 344 345 345 345 345 345 345 345 345 344 344 345 345 345 344 344 343 343 343 342 343 342 342 341 341 341 340 339 337 334
342 341 339 337 336 335 336 335 336 341 343 343 343 344 344 344 345 345 345 345 345 344 345 345 345 345 344 344 343 343 343 343 342 342 342 342 342 341 340 340 338 334
337 335 332 331 331 331 332 332 334 339 343 343 343 344 344 344 345 345 345 345 345 345 345 344 345 345 344 344 344 343 343 343 342 341 338 338 340 341 340 339 337 334
332 331 331 331 332 333 334 334 336 341 343 343 343 344 343 344 344 344 345 345 345 344 344 344 344 344 344 344 344 343 342 342 340 335 331 330 335 340 340 338 337 334
333 333 334 335 336 337 338 338 339 340 341 342 343 343 343 344 344 344 344 344 344 344 344 344 344 344 344 344 343 343 343 341 337 334 331 329 332 336 338 338 337 334
335 336 337 337 339 339 339 339 338 338 339 342 343 344 344 344 344 344 344 344 344 344 344 344 344 344 344 343 343 343 342 339 335 333 331 329 330 333 335 336 335 333
335 336 337 339 340 339 337 336 336 337 339 342 344 344 345 344 344 344 344 344 344 344 344 344 344 344 344 344 343 342 341 338 335 334 332 329 330 333 333 333 333 332
Wind_Speed
34 34 34 34 33 32 31 32 33 33 34 36 36 37 37 34 30 28 28 29 29 28 26 24 24 25 26 24 24 23 21 20 19 19 20 21 22 22 23 24 25 26
35 34 34 33 33 32 32 32 33 34 35 36 37 37 36 34 30 27 28 29 29 28 27 26 24 24 26 25 24 24 22 21 20 19 20 21 21 22 23 23 25 26
36 35 34 35 35 34 34 33 32 34 35 35 35 36 36 34 30 28 28 28 29 29 28 28 26 24 25 25 25 24 23 22 21 20 20 21 21 22 22 23 24 25
37 37 36 36 36 35 34 33 32 33 34 35 35 36 36 34 31 29 29 29 29 29 29 29 27 25 24 25 25 25 24 23 22 21 21 22 22 22 22 22 23 25
38 37 36 35 34 33 33 31 31 31 32 34 35 36 36 34 32 30 29 29 30 29 29 29 28 27 26 25 25 26 25 24 22 21 22 23 23 23 23 23 24 25
38 36 35 33 32 32 31 31 31 32 33 33 34 35 35 34 33 32 30 31 30 30 29 29 29 29 28 27 26 26 26 25 23 22 22 23 23 22 22 23 24 24
36 36 34 32 31 31 31 33 34 33 33 33 33 34 35 35 34 32 31 31 31 30 30 29 29 29 29 28 28 27 26 26 24 22 22 23 23 22 22 23 23 23
34 34 33 31 30 30 31 33 34 33 32 32 33 34 34 35 35 32 30 31 31 30 30 29 29 30 30 29 29 28 27 27 25 24 23 23 22 22 21 21 21 22
30 30 31 31 31 31 31 32 34 33 32 32 33 33 33 34 34 32 31 31 31 30 30 30 30 30 30 30 30 29 28 28 27 25 24 23 23 22 21 21 21 22
30 29 29 30 32 33 33 32 32 32 32 32 33 33 33 33 33 32 31 31 31 31 31 31 30 30 30 29 29 29 29 29 28 27 25 24 24 23 22 21 22 23
31 30 30 31 33 35 34 33 31 31 31 31 32 32 32 32 31 30 31 32 33 32 32 31 29 29 29 29 28 28 29 29 29 28 26 24 24 24 23 23 23 23
33 32 33 34 35 34 33 32 31 31 31 31 31 31 31 31 31 31 31 32 32 32 31 29 28 28 29 28 27 27 28 29 29 28 26 24 24 24 24 24 23 22
34 33 33 33 33 32 29 28 29 30 32 32 32 30 30 29 30 31 31 31 31 30 29 27 26 28 28 27 26 27 27 28 28 27 26 25 25 24 24 24 23 22
36 36 35 32 30 29 27 27 28 29 31 32 31 30 31 31 31 31 31 31 30 29 27 26 25 26 27 27 27 27 27 27 28 27 27 25 25 24 24 23 22 22
37 36 36 34 31 29 29 30 31 31 31 31 30 30 31 31 32 32 32 31 30 28 27 26 26 27 28 28 28 27 26 26 27 27 27 26 25 25 24 24 23 22
35 34 34 34 32 31 31 31 32 32 31 30 31 30 29 30 30 31 31 31 31 29 28 28 28 28 28 28 28 27 26 26 26 27 27 26 25 25 25 25 23 22
32 33 32 32 31 31 31 31 32 32 31 31 31 30 29 29 29 30 31 31 31 30 30 30 30 29 29 29 28 27 26 26 26 27 27 27 26 26 26 26 24 22
27 28 28 28 28 28 30 30 30 31 32 32 32 31 31 30 30 31 31 31 31 31 31 31 31 31 30 29 29 28 27 27 27 27 27 27 27 28 28 26 24 22
28 27 25 23 23 24 26 27 29 31 33 34 34 33 32 31 31 31 31 31 31 32 32 32 32 32 31 30 30 29 27 28 28 28 28 28 28 29 28 27 25 22
32 32 30 27 24 23 22 24 29 33 35 35 35 34 33 32 31 31 31 32 33 33 33 33 33 33 32 31 30 29 28 29 30 30 29 29 29 29 29 28 26 23
34 33 31 29 27 25 24 27 32 35 34 33 32 32 33 33 31 32 32 33 34 34 34 34 34 33 32 32 31 30 28 29 31 32 32 31 30 30 30 28 26 24
35 32 29 28 28 28 29 33 38 38 35 33 31 31 33 33 32 32 32 33 34 34 34 34 34 33 32 31 32 30 28 30 34 33 31 31 32 32 31 28 27 25
34 32 31 31 31 31 34 39 41 39 35 34 32 31 31 32 33 31 31 32 33 33 34 34 33 32 32 32 32 30 29 32 33 29 27 30 33 33 32 29 28 26
34 34 35 35 34 34 37 40 40 37 35 34 33 32 32 33 32 30 29 30 32 32 33 33 32 32 32 33 32 31 31 32 32 30 31 33 33 33 32 30 28 27
34 35 35 36 36 37 39 39 37 35 33 32 32 32 33 33 31 28 27 29 31 32 33 33 33 32 32 33 33 32 32 32 31 31 34 34 32 32 32 31 30 28
34 34 36 37 39 40 40 38 36 33 31 30 30 31 31 29 28 26 26 27 29 31 33 33 33 33 34 34 34 33 33 33 33 34 36 34 32 33 32 31 31 30
Wind_Direction
217 217 218 217 217 219 217 215 213 213 215 217 218 221 221 220 219 220 224 227 227 228 228 229 230 232 230 229 228 228 232 236 240 243 243 244 247 249 251 253 257 257
216 218 219 219 218 220 222 222 218 217 219 219 219 222 223 222 221 222 224 226 226 228 229 229 230 232 232 231 229 229 230 234 238 242 244 247 249 252 255 258 262 264
214 217 219 220 220 220 222 225 223 221 221 221 220 222 224 224 224 224 226 226 227 228 229 229 229 232 232 230 231 231 232 234 237 240 245 250 252 255 260 263 265 268
212 216 219 221 221 220 222 224 225 223 222 222 223 223 225 226 225 225 226 227 228 229 229 229 229 231 231 230 231 233 235 237 239 241 245 249 252 255 260 265 266 267
212 215 218 220 221 221 221 222 225 225 224 225 225 225 226 225 225 225 226 226 227 228 229 229 230 232 232 231 232 233 235 238 240 242 245 247 250 254 258 262 265 265
210 213 216 219 220 221 221 222 226 228 228 227 226 226 226 226 225 226 227 227 226 226 228 229 231 232 233 234 234 235 236 238 240 242 245 247 249 252 257 260 263 267
209 211 214 217 220 221 222 225 228 228 228 228 227 227 227 227 227 227 227 227 226 225 227 229 231 233 234 235 236 237 237 238 241 242 244 246 247 249 254 259 261 266
212 210 210 213 217 221 223 227 230 230 228 228 228 228 228 228 229 228 227 226 226 226 228 229 231 233 235 236 237 237 236 237 238 240 242 243 243 246 251 256 260 263
213 211 209 210 214 220 223 226 230 232 230 229 230 230 228 229 230 229 228 226 225 227 229 231 232 233 235 236 237 236 235 236 237 239 242 242 242 245 249 252 257 259
211 211 209 209 214 219 222 224 226 227 228 228 229 229 229 229 229 229 228 226 226 227 229 230 232 234 235 236 236 236 236 236 238 239 241 243 244 245 248 251 254 255
209 209 209 211 216 219 220 221 223 222 224 226 226 226 227 227 227 228 228 227 227 227 227 229 232 234 236 236 237 237 238 238 238 239 241 244 245 246 247 249 251 253
208 208 209 211 216 220 219 220 221 221 223 225 226 225 225 226 228 229 230 230 229 228 226 227 232 235 236 237 238 238 239 239 238 238 240 242 245 247 248 249 250 253
205 207 209 210 213 217 219 220 221 222 225 228 228 227 227 228 229 231 233 233 232 230 229 230 233 235 236 237 238 238 238 238 237 237 238 241 244 246 247 247 248 251
206 206 207 208 210 213 218 222 224 225 226 227 228 228 229 231 233 234 235 235 234 234 235 235 235 236 237 238 236 236 237 238 238 239 239 239 242 243 244 244 245 246
206 205 203 203 204 208 213 220 225 226 225 225 226 226 226 228 231 233 233 234 235 236 237 238 238 238 239 239 235 233 235 237 238 240 240 240 240 240 240 241 241 240
203 202 199 196 197 201 207 213 219 223 221 222 225 225 224 224 225 228 231 234 236 237 237 238 239 240 241 240 237 236 236 236 237 239 240 240 239 238 238 238 238 237
199 198 196 193 193 198 203 207 212 216 218 219 222 225 227 226 225 226 230 234 235 235 236 237 239 241 242 242 240 239 239 237 237 238 238 238 237 237 237 237 235 235
195 192 189 189 192 198 204 207 210 214 217 218 219 222 225 227 227 227 230 233 233 234 235 236 239 242 243 243 241 238 238 238 238 238 237 236 236 235 236 235 234 233
185 181 176 178 186 197 205 210 213 215 217 217 217 218 219 221 223 226 229 231 232 233 234 236 239 241 241 242 241 237 235 236 237 237 237 236 236 235 233 233 232 231
184 181 177 178 188 199 207 214 220 220 219 219 217 215 214 216 219 223 227 230 231 232 233 236 239 241 241 241 239 236 234 233 234 236 236 235 236 235 233 232 233 231
191 190 187 188 196 206 213 221 227 226 221 220 218 214 214 215 217 221 224 228 230 231 231 235 238 240 241 240 239 237 234 232 233 233 233 232 234 234 233 233 234 232
197 196 195 196 199 204 209 216 223 224 220 219 218 217 216 214 214 218 222 226 229 230 231 233 236 239 239 239 240 238 234 231 230 227 227 228 230 231 231 231 233 232
197 193 194 197 198 200 205 211 218 219 216 214 215 216 217 215 212 215 222 227 229 230 230 232 236 239 240 240 240 238 234 230 223 218 222 229 231 230 228 227 230 230
195 192 192 194 196 200 206 211 214 215 213 211 211 214 218 219 216 215 219 226 229 231 232 234 238 241 242 242 240 238 235 227 216 215 225 230 230 229 226 225 228 230
194 193 192 192 196 202 208 212 212 212 212 211 212 214 217 221 220 216 216 223 229 233 235 237 239 242 244 243 240 239 234 221 212 218 226 226 226 227 225 224 226 227
194 194 194 194 196 201 206 210 211 211 212 213 213 216 219 221 223 221 219 223 229 234 237 239 240 242 244 244 241 237 231 218 211 218 223 221 221 224 224 224 225 226